Location: Fort Wayne
(41.1310°N, 85.1290°W)
Time: 14:41:40
(UTC-04:00)

Cosmos 1980 - Visible Passes

Search period start: 18 April 2014 00:00
Search period end: 28 April 2014 00:00
Orbit: 838 x 849 km, 71.0° (Epoch: 17 April)

Date Brightness Start Highest point End Pass type
(mag) Time Alt. Az. Time Alt. Az. Time Alt. Az.
18 Apr 5.9 21:49:33 10° NW 21:53:55 23° W 21:58:15 10° SSW visible
19 Apr 5.9 21:35:04 10° NW 21:39:31 24° WSW 21:43:57 10° SSW visible
20 Apr 5.9 21:20:35 10° NW 21:25:07 25° WSW 21:29:38 10° SSW visible
21 Apr 5.9 21:06:07 10° NW 21:10:44 26° WSW 21:15:20 10° SSW visible
22 Apr 5.9 20:51:38 10° NW 20:56:20 27° WSW 21:01:01 10° SSW visible
